EST,Max TemperatureF,Mean TemperatureF,Min TemperatureF,Max Dew PointF,MeanDew PointF,Min DewpointF,Max Humidity, Mean Humidity, Min Humidity, Max Sea Level PressureIn, Mean Sea Level PressureIn, Min Sea Level PressureIn, Max VisibilityMiles, Mean VisibilityMiles, Min VisibilityMiles, Max Wind SpeedMPH, Mean Wind SpeedMPH, Max Gust SpeedMPH,PrecipitationIn, CloudCover, Events, WindDirDegrees
2012-12-1,50,41,32,41,34,28,89,81,66,30.48,30.41,30.36,10,6,4,10,6,,0.00,0,Snow,348
2012-12-2,59,46,33,46,37,30,96,84,60,30.42,30.31,30.17,10,5,0,10,6,,0.00,4,Fog-Snow,244
2012-12-3,64,55,46,50,47,42,90,78,58,30.28,30.23,30.18,10,10,8,6,3,,0.00,4,,227
2012-12-4,68,57,46,51,47,44,90,76,49,30.26,30.18,30.05,10,10,6,13,3,,0.00,6,,208
2012-12-5,64,54,39,48,34,25,60,45,27,30.32,30.16,30.02,10,10,10,17,10,26,0.00,3,Rain,344
2012-12-6,42,37,32,31,24,20,73,58,41,30.42,30.34,30.28,10,10,9,12,7,,0.00,2,Snow,145
2012-12-7,48,44,39,45,42,32,93,85,73,30.26,30.09,29.99,10,6,1,13,9,,0.16,8,Rain,197
2012-12-8,55,50,46,50,46,44,100,91,83,30.03,29.97,29.92,10,4,0,9,3,,0.00,6,Fog,195
2012-12-9,53,50,46,49,47,44,94,90,82,30.17,30.11,30.01,7,3,0,12,3,,0.11,8,Fog-Rain,54
2012-12-10,66,57,48,57,52,46,97,88,70,29.97,29.74,29.62,10,4,0,12,5,22,0.00,6,Fog,219
2012-12-11,59,50,41,52,35,27,83,62,44,30.25,29.99,29.67,10,10,5,24,13,36,0.16,6,Rain,8
2012-12-12,46,42,39,30,27,25,65,55,49,30.45,30.39,30.26,10,10,10,13,6,,0.00,5,,25
2012-12-13,48,39,30,31,26,24,82,59,38,30.49,30.42,30.38,10,10,10,9,7,,0.00,1,,3
2012-12-14,51,39,27,36,29,23,85,72,44,30.37,30.31,30.24,10,10,10,9,6,,0.00,0,,282
2012-12-15,50,41,32,41,33,28,89,73,54,30.32,30.24,30.15,10,10,10,9,4,,0.02,2,Rain,262
2012-12-16,48,46,44,45,43,40,93,88,82,30.15,29.99,29.86,10,8,5,8,4,,0.12,6,Rain,184
2012-12-17,53,50,48,52,47,44,94,89,82,29.87,29.74,29.58,10,3,0,8,2,,0.10,8,Fog-Rain,190
2012-12-18,60,48,37,52,43,33,94,75,39,29.84,29.65,29.56,10,8,0,20,7,30,0.00,4,Fog,283
2012-12-19,54,43,32,39,33,29,89,70,50,30.19,29.99,29.83,10,10,10,17,6,22,0.00,1,,321
2012-12-20,54,44,36,51,39,32,90,79,63,30.22,29.94,29.42,10,9,3,21,8,29,0.52,7,Rain,161
2012-12-21,59,48,36,55,34,19,94,64,39,29.63,29.43,29.31,10,9,2,21,12,29,0.36,6,Rain,278
2012-12-22,46,40,32,22,19,18,64,45,33,30.07,29.88,29.63,10,10,10,26,13,41,0.00,3,,332
2012-12-23,45,36,26,32,24,19,81,66,42,30.11,30.03,29.94,10,10,10,13,6,,0.00,0,,269
2012-12-24,39,34,28,36,32,23,93,85,62,30.12,29.98,29.92,10,6,2,9,5,,0.12,6,Rain,336
2012-12-25,48,42,35,37,34,30,93,84,52,30.26,30.11,29.93,10,5,1,10,3,,0.00,7,,337
2012-12-26,41,37,33,37,33,28,93,86,70,30.25,29.82,29.44,10,5,1,22,14,28,1.34,8,Rain-Snow,41
2012-12-27,43,39,35,34,27,22,87,65,49,30.05,29.77,29.45,10,10,10,24,12,33,0.00,5,,324
2012-12-28,42,37,32,30,27,24,79,66,51,30.19,30.11,30.06,10,10,10,10,3,,0.00,2,,334
2012-12-29,42,38,33,36,32,25,93,80,55,30.04,29.76,29.60,10,8,2,18,4,33,0.16,7,Rain-Snow,306
2012-12-30,42,37,30,25,20,17,64,49,37,30.36,30.18,29.87,10,10,10,23,14,41,0.00,3,,339
2012-12-31,45,35,26,28,23,19,81,62,36,30.37,30.21,30.02,10,10,10,9,3,,0.00,2,,235